Regional Weather Roundup
Issued by NWS Charleston, WV

Home | Current Version | Previous Version | Graphics & Text | Print | Product List | Glossary On
Versions: 1 2 3 4 5 6 7 8 9 10 11 12 13 14 15 16 17 18 19 20 21 22 23 24 25 26 27 28 29 30 31 32 33 34 35 36 37 38 39 40 41 42 43 44 45 46 47 48 49 50
763
ASUS41 KRLX 220810
RWRRLX
West Virginia Regional Weather Roundup
National Weather Service Charleston WV
400 AM EDT SAT APR 22 2017

Note: "fair" indicates few or no clouds below 12,000 feet with no
significant weather and/or obstructions to visibility.

WVZ003-220900-
Northern Panhandle of West Virginia

CITY           SKY/WX    TMP DP  RH WIND       PRES   REMARKS
WHEELING       LGT RAIN  46  38  73 N7        30.00R
$$

WVZ009-220900-
Northwest West Virginia

CITY           SKY/WX    TMP DP  RH WIND       PRES   REMARKS
PARKERSBURG    CLOUDY    50  40  68 N8        30.01R
$$

WVZ006-220900-
Western West Virginia

CITY           SKY/WX    TMP DP  RH WIND       PRES   REMARKS
HUNTINGTON     LGT RAIN  53  47  79 N7        29.93F
$$

WVZ015-220900-
West Central West Virginia

CITY           SKY/WX    TMP DP  RH WIND       PRES   REMARKS
CHARLESTON     LGT RAIN  55  48  77 N3        29.93R
$$

WVZ022-031-220900-
North Central West Virginia

CITY           SKY/WX    TMP DP  RH WIND       PRES   REMARKS
CLARKSBURG     CLOUDY    51  44  77 NE10      29.94F
MORGANTOWN     CLOUDY    49  40  71 N5        29.98R
$$

WVZ025-035-042-045-220900-
Southern West Virginia

CITY           SKY/WX    TMP DP  RH WIND       PRES   REMARKS
BECKLEY        LGT RAIN  53  51  93 VRB5      29.90F
LOGAN          CLOUDY    55  50  82 CALM      29.90S
BLUEFIELD      CLOUDY    57  56  96 SW3       29.92F
LEWISBURG      CLOUDY    57  56  94 CALM      29.90F
$$

WVZ047-220900-
Northern Mountains of West Virginia

CITY           SKY/WX    TMP DP  RH WIND       PRES   REMARKS
ELKINS         CLOUDY    52  47  83 CALM      29.95S
$$

WVZ052-220900-
Eastern Panhandle of West Virginia

CITY           SKY/WX    TMP DP  RH WIND       PRES   REMARKS
MARTINSBURG    CLOUDY    62  43  49 N9        29.87S
PETERSBURG     LGT RAIN  58  50  73 N3        29.94R
$$




USA.gov is the U.S. government's official web portal to all federal, state and local government web resources and services.